UAE103 OBBI-OMDB

Flight info

Callsign UAE103
Flight time 0h 58m
Altitude 25000
Route BHR N697 SODAK P559 VUTEB
Aircraft A359/H-SDE2E3GHIJ3J4J5LM1ORWXY/LB1D1

Departure

Time 2026-04-30 13:00
Airport Bahrain International Airport (OBBI)

Arrival

Time 2026-04-30 13:59
Airport Dubai International Airport (OMDB)
Time Latitude Longitude Altitude Speed Heading
2026-04-30 12:12 26.26804 50.63074 27 ft 0 kts 213°
2026-04-30 12:17 26.26811 50.63079 27 ft 0 kts 212°
2026-04-30 12:50 26.26815 50.63082 26 ft 3 kts 212°
2026-04-30 12:51 26.26831 50.63093 26 ft 3 kts 212°
2026-04-30 12:51 26.26846 50.63104 24 ft 3 kts 212°
2026-04-30 12:51 26.26863 50.63116 25 ft 3 kts 235°
2026-04-30 12:51 26.26870 50.63137 24 ft 3 kts 273°
2026-04-30 12:52 26.26870 50.63158 24 ft 3 kts 273°
2026-04-30 12:52 26.26869 50.63178 24 ft 3 kts 273°
2026-04-30 12:52 26.26868 50.63197 25 ft 3 kts 276°
2026-04-30 12:52 26.26865 50.63213 24 ft 0 kts 303°
2026-04-30 12:55 26.26888 50.63172 25 ft 23 kts 299°
2026-04-30 12:56 26.27009 50.62930 28 ft 41 kts 302°
2026-04-30 12:56 26.27157 50.62668 30 ft 33 kts 301°
2026-04-30 12:56 26.27253 50.62539 25 ft 7 kts 352°
2026-04-30 12:56 26.27282 50.62553 27 ft 4 kts 45°
2026-04-30 12:57 26.27334 50.62563 25 ft 10 kts 336°
2026-04-30 12:57 26.27385 50.62500 26 ft 12 kts 305°
2026-04-30 12:57 26.27435 50.62416 28 ft 15 kts 303°
2026-04-30 12:57 26.27497 50.62311 25 ft 18 kts 303°
2026-04-30 12:58 26.27567 50.62188 23 ft 20 kts 302°
2026-04-30 12:58 26.27646 50.62051 27 ft 22 kts 303°
2026-04-30 12:58 26.27734 50.61899 27 ft 24 kts 303°
2026-04-30 12:58 26.27828 50.61736 26 ft 26 kts 302°
2026-04-30 12:59 26.27971 50.61653 29 ft 23 kts 18°
2026-04-30 12:59 26.28005 50.61780 29 ft 20 kts 124°
2026-04-30 12:59 26.27921 50.61908 28 ft 21 kts 124°
2026-04-30 12:59 26.27837 50.62053 26 ft 25 kts 123°
2026-04-30 13:00 26.27616 50.62438 24 ft 97 kts 123°
2026-04-30 13:00 26.27132 50.63282 24 ft 161 kts 123°
2026-04-30 13:00 26.26479 50.64401 588 ft 172 kts 123°
2026-04-30 13:00 26.25836 50.65496 1441 ft 167 kts 123°
2026-04-30 13:01 26.25504 50.66621 2398 ft 144 kts 75°
2026-04-30 13:01 26.25866 50.67601 3126 ft 133 kts 65°
2026-04-30 13:01 26.26270 50.68527 3655 ft 138 kts 62°
2026-04-30 13:01 26.26770 50.69532 3902 ft 166 kts 59°
2026-04-30 13:02 26.27447 50.70770 4085 ft 200 kts 58°
2026-04-30 13:02 26.28034 50.72215 4614 ft 210 kts 80°
2026-04-30 13:02 26.27857 50.73826 5290 ft 214 kts 113°
2026-04-30 13:02 26.27139 50.75285 6037 ft 216 kts 122°
2026-04-30 13:03 26.26420 50.76762 6772 ft 219 kts 111°
2026-04-30 13:03 26.26173 50.78469 7337 ft 236 kts 85°
2026-04-30 13:03 26.26629 50.80321 7728 ft 261 kts 66°
2026-04-30 13:03 26.27527 50.82147 8363 ft 275 kts 57°
2026-04-30 13:04 26.28644 50.83909 9213 ft 281 kts 53°
2026-04-30 13:04 26.29847 50.85659 10115 ft 286 kts 52°
2026-04-30 13:04 26.31087 50.87457 10765 ft 303 kts 52°
2026-04-30 13:04 26.32398 50.89415 11162 ft 326 kts 53°
2026-04-30 13:05 26.33750 50.91505 11541 ft 347 kts 54°
2026-04-30 13:05 26.35165 50.93756 12177 ft 359 kts 55°
2026-04-30 13:05 26.36594 50.96065 12978 ft 364 kts 55°
2026-04-30 13:06 26.39496 51.00792 14574 ft 374 kts 55°
2026-04-30 13:06 26.40973 51.03198 15352 ft 378 kts 55°
2026-04-30 13:06 26.42468 51.05630 16101 ft 382 kts 55°
2026-04-30 13:06 26.43983 51.08093 16830 ft 387 kts 55°
2026-04-30 13:07 26.45517 51.10585 17552 ft 391 kts 55°
2026-04-30 13:07 26.47067 51.13104 18275 ft 395 kts 55°
2026-04-30 13:07 26.48629 51.15642 19015 ft 399 kts 55°
2026-04-30 13:07 26.50214 51.18219 19729 ft 404 kts 55°
2026-04-30 13:08 26.51794 51.20790 20433 ft 408 kts 55°
2026-04-30 13:08 26.53412 51.23424 21135 ft 412 kts 55°
2026-04-30 13:08 26.55042 51.26081 21810 ft 417 kts 55°
2026-04-30 13:08 26.56689 51.28764 22458 ft 421 kts 55°
2026-04-30 13:09 26.58352 51.31477 23099 ft 425 kts 55°
2026-04-30 13:09 26.60034 51.34223 23741 ft 429 kts 55°
2026-04-30 13:09 26.61690 51.36974 24336 ft 433 kts 58°
2026-04-30 13:09 26.63106 51.39964 24881 ft 439 kts 66°
2026-04-30 13:10 26.64088 51.43248 25169 ft 451 kts 77°
2026-04-30 13:10 26.64478 51.46766 25430 ft 462 kts 89°
2026-04-30 13:10 26.64210 51.50384 25731 ft 472 kts 100°
2026-04-30 13:10 26.63443 51.53975 26185 ft 478 kts 107°
2026-04-30 13:11 26.62391 51.57517 26665 ft 482 kts 110°
2026-04-30 13:11 26.61203 51.61042 27178 ft 486 kts 111°
2026-04-30 13:11 26.59988 51.64526 27662 ft 490 kts 111°
2026-04-30 13:11 26.58753 51.68093 28112 ft 494 kts 111°
2026-04-30 13:12 26.57532 51.71695 28559 ft 497 kts 110°
2026-04-30 13:12 26.56327 51.75339 28910 ft 502 kts 110°
2026-04-30 13:12 26.55138 51.78987 28990 ft 493 kts 110°
2026-04-30 13:13 26.52789 51.86237 29003 ft 505 kts 110°
2026-04-30 13:13 26.51591 51.89933 28999 ft 507 kts 110°
2026-04-30 13:14 26.47904 52.01027 29001 ft 508 kts 110°
2026-04-30 13:14 26.44196 52.12104 28998 ft 508 kts 110°
2026-04-30 13:15 26.40506 52.23147 28999 ft 508 kts 110°
2026-04-30 13:16 26.38031 52.30521 29001 ft 508 kts 110°
2026-04-30 13:16 26.35574 52.37831 29001 ft 508 kts 110°
2026-04-30 13:17 26.31535 52.48743 28999 ft 508 kts 114°
2026-04-30 13:18 26.27275 52.59559 28999 ft 508 kts 113°
2026-04-30 13:18 26.23079 52.70418 29000 ft 508 kts 113°
2026-04-30 13:19 26.20330 52.77610 29002 ft 508 kts 113°
2026-04-30 13:19 26.17560 52.84854 29001 ft 508 kts 113°
2026-04-30 13:20 26.14790 52.92092 28999 ft 508 kts 113°
2026-04-30 13:20 26.12020 52.99280 29001 ft 508 kts 113°
2026-04-30 13:21 26.09241 53.06512 29003 ft 508 kts 112°
2026-04-30 13:22 26.05240 53.17425 28999 ft 508 kts 112°
2026-04-30 13:22 26.01243 53.28348 29001 ft 508 kts 112°
2026-04-30 13:23 25.97220 53.39241 29001 ft 508 kts 112°
2026-04-30 13:24 25.91874 53.53767 29000 ft 508 kts 111°
2026-04-30 13:25 25.86888 53.68391 29001 ft 508 kts 111°
2026-04-30 13:26 25.80573 53.86653 28414 ft 498 kts 111°
2026-04-30 13:27 25.78088 53.93784 26794 ft 492 kts 111°
2026-04-30 13:28 25.74471 54.04268 24692 ft 477 kts 109°
2026-04-30 13:28 25.72362 54.11167 23263 ft 467 kts 108°
2026-04-30 13:28 25.71351 54.14569 22559 ft 463 kts 108°
2026-04-30 13:29 25.69334 54.21276 21119 ft 453 kts 109°
2026-04-30 13:29 25.67327 54.27826 19688 ft 444 kts 109°
2026-04-30 13:30 25.64375 54.37371 17706 ft 426 kts 109°
2026-04-30 13:31 25.62479 54.43475 16487 ft 413 kts 109°
2026-04-30 13:31 25.59710 54.52372 14462 ft 401 kts 109°
2026-04-30 13:32 25.58196 54.58231 13234 ft 390 kts 96°
2026-04-30 13:32 25.58486 54.63957 12536 ft 366 kts 83°
2026-04-30 13:33 25.59122 54.69315 12180 ft 336 kts 82°
2026-04-30 13:33 25.59739 54.74292 11579 ft 318 kts 82°
2026-04-30 13:34 25.60040 54.76693 11279 ft 310 kts 82°
2026-04-30 13:34 25.60906 54.83598 10238 ft 297 kts 82°
2026-04-30 13:35 25.61074 54.85135 10186 ft 298 kts 85°
2026-04-30 13:35 25.60078 54.89527 10190 ft 297 kts 114°
2026-04-30 13:36 25.58421 54.93688 10192 ft 297 kts 114°
2026-04-30 13:36 25.57592 54.95788 10193 ft 297 kts 114°
2026-04-30 13:36 25.55943 54.99993 10192 ft 297 kts 113°
2026-04-30 13:37 25.55121 55.02095 10193 ft 297 kts 113°
2026-04-30 13:37 25.53236 55.06164 10186 ft 297 kts 116°
2026-04-30 13:38 25.52960 55.10674 9114 ft 305 kts 86°
2026-04-30 13:38 25.52660 55.13027 8509 ft 315 kts 110°
2026-04-30 13:38 25.49905 55.16752 8186 ft 316 kts 139°
2026-04-30 13:39 25.46416 55.19694 8186 ft 315 kts 147°
2026-04-30 13:39 25.43335 55.23152 8190 ft 316 kts 131°
2026-04-30 13:40 25.41875 55.24973 8192 ft 316 kts 132°
2026-04-30 13:40 25.40428 55.26767 8189 ft 316 kts 131°
2026-04-30 13:40 25.38963 55.28578 8191 ft 316 kts 132°
2026-04-30 13:40 25.37495 55.30385 8196 ft 316 kts 132°
2026-04-30 13:41 25.36007 55.32174 8192 ft 316 kts 135°
2026-04-30 13:41 25.34215 55.33573 8080 ft 315 kts 151°
2026-04-30 13:41 25.32285 55.34705 7821 ft 314 kts 153°
2026-04-30 13:41 25.30345 55.35810 7580 ft 313 kts 153°
2026-04-30 13:42 25.28414 55.36921 7326 ft 312 kts 153°
2026-04-30 13:42 25.26497 55.38032 7201 ft 311 kts 152°
2026-04-30 13:42 25.22669 55.40264 7191 ft 311 kts 152°
2026-04-30 13:43 25.20755 55.41382 7192 ft 311 kts 152°
2026-04-30 13:43 25.18841 55.42501 7192 ft 311 kts 152°
2026-04-30 13:43 25.16931 55.43622 7191 ft 311 kts 152°
2026-04-30 13:43 25.15019 55.44739 7191 ft 311 kts 152°
2026-04-30 13:44 25.13104 55.45857 7192 ft 311 kts 152°
2026-04-30 13:44 25.11271 55.47114 7185 ft 312 kts 138°
2026-04-30 13:44 25.09938 55.48995 7194 ft 311 kts 122°
2026-04-30 13:44 25.08821 55.51042 7191 ft 312 kts 121°
2026-04-30 13:45 25.06598 55.55157 7192 ft 312 kts 121°
2026-04-30 13:45 25.05469 55.57200 7192 ft 312 kts 122°
2026-04-30 13:45 25.04331 55.59240 7192 ft 312 kts 122°
2026-04-30 13:46 25.03198 55.61282 7192 ft 312 kts 121°
2026-04-30 13:46 25.02071 55.63327 7192 ft 312 kts 121°
2026-04-30 13:46 25.00942 55.65371 7192 ft 312 kts 121°
2026-04-30 13:46 24.99810 55.67414 7192 ft 312 kts 122°
2026-04-30 13:47 24.98697 55.69402 7193 ft 312 kts 122°
2026-04-30 13:47 24.97554 55.71438 7192 ft 312 kts 122°
2026-04-30 13:47 24.96416 55.73477 6831 ft 314 kts 122°
2026-04-30 13:47 24.95242 55.75570 6975 ft 327 kts 123°
2026-04-30 13:48 24.94358 55.77893 7012 ft 334 kts 100°
2026-04-30 13:48 24.94480 55.80431 6990 ft 334 kts 71°
2026-04-30 13:48 24.95622 55.82639 6904 ft 333 kts 44°
2026-04-30 13:48 24.97483 55.84055 6535 ft 323 kts 18°
2026-04-30 13:49 24.99637 55.84355 6141 ft 307 kts 349°
2026-04-30 13:49 25.01506 55.83540 5774 ft 293 kts 321°
2026-04-30 13:49 25.02724 55.81832 5381 ft 283 kts 292°
2026-04-30 13:49 25.03179 55.79750 5019 ft 277 kts 281°
2026-04-30 13:50 25.03443 55.77664 4634 ft 273 kts 278°
2026-04-30 13:50 25.04696 55.73810 3881 ft 264 kts 298°
2026-04-30 13:50 25.05582 55.72050 3768 ft 264 kts 301°
2026-04-30 13:51 25.06499 55.70318 3676 ft 256 kts 302°
2026-04-30 13:51 25.07391 55.68677 3582 ft 243 kts 301°
2026-04-30 13:51 25.08239 55.67128 3465 ft 230 kts 301°
2026-04-30 13:51 25.09048 55.65661 3364 ft 219 kts 301°
2026-04-30 13:52 25.09831 55.64245 3243 ft 215 kts 302°
2026-04-30 13:52 25.10715 55.62946 3031 ft 207 kts 312°
2026-04-30 13:52 25.11604 55.61762 2983 ft 193 kts 307°
2026-04-30 13:52 25.12323 55.60589 2977 ft 178 kts 303°
2026-04-30 13:53 25.12954 55.59441 3020 ft 174 kts 301°
2026-04-30 13:53 25.13580 55.58299 3001 ft 177 kts 302°
2026-04-30 13:53 25.14220 55.57137 2993 ft 177 kts 301°
2026-04-30 13:53 25.14861 55.55981 2991 ft 176 kts 301°
2026-04-30 13:54 25.15501 55.54833 2992 ft 176 kts 302°
2026-04-30 13:54 25.16143 55.53681 2994 ft 177 kts 302°
2026-04-30 13:54 25.16788 55.52519 2890 ft 177 kts 303°
2026-04-30 13:54 25.17423 55.51370 2678 ft 175 kts 303°
2026-04-30 13:55 25.18056 55.50227 2434 ft 173 kts 303°
2026-04-30 13:55 25.18663 55.49129 2210 ft 161 kts 303°
2026-04-30 13:55 25.19218 55.48126 2009 ft 145 kts 303°
2026-04-30 13:55 25.19719 55.47220 1827 ft 131 kts 302°
2026-04-30 13:56 25.20184 55.46381 1686 ft 127 kts 303°
2026-04-30 13:56 25.20648 55.45543 1529 ft 128 kts 302°
2026-04-30 13:56 25.21110 55.44705 1358 ft 128 kts 302°
2026-04-30 13:56 25.21578 55.43866 1151 ft 130 kts 302°
2026-04-30 13:57 25.22043 55.43026 956 ft 125 kts 298°
2026-04-30 13:57 25.22474 55.42200 788 ft 124 kts 298°
2026-04-30 13:57 25.22925 55.41375 662 ft 128 kts 300°
2026-04-30 13:57 25.23384 55.40550 598 ft 132 kts 302°
2026-04-30 13:58 25.23888 55.39646 377 ft 140 kts 300°
2026-04-30 13:58 25.24843 55.37946 59 ft 123 kts 300°
2026-04-30 13:58 25.25276 55.37167 30 ft 111 kts 302°
2026-04-30 13:59 25.25599 55.36595 28 ft 50 kts 302°
2026-04-30 13:59 25.25647 55.36492 28 ft 7 kts 281°
2026-04-30 13:59 25.25666 55.36288 28 ft 26 kts 270°
2026-04-30 13:59 25.25666 55.36264 28 ft 0 kts 270°
2026-04-30 14:00 25.25694 55.36063 28 ft 35 kts 295°
2026-04-30 14:00 25.25743 55.35969 28 ft 0 kts 300°